RUSSARO Weather Reports


Display with metric or nautical units.
time (UTC)temp
F
wind
direction
speed
MPH
gust
MPH
rain 1hr
in
rain 24hr
in
rain mn
in
humidity
%
barometer
mb
20260503070709 49 302 6.0 7.0 0.00 0.00 0.00 80 1008.1
20260503054709 44 285 14.0 15.0 0.00 0.00 0.00 87 1007.7
20260503052709 44 277 14.0 15.0 0.00 0.00 0.00 88 1007.3
20260503050709 43 275 18.0 19.0 0.00 0.00 0.00 89 1007.2
20260503044709 43 277 18.0 19.0 0.00 0.00 0.00 89 1007.2
20260503042709 43 272 16.0 18.0 0.00 0.00 0.00 89 1006.8
20260503040709 42 257 16.0 18.0 0.00 0.00 0.00 91 1006.7
20260503034709 42 264 13.0 15.0 0.00 0.00 0.00 91 1006.5
20260503032709 42 256 15.0 18.0 0.00 0.00 0.00 92 1006.3
20260503030709 42 254 16.0 17.0 0.00 0.00 0.00 91 1006.2
20260503024709 42 247 18.0 20.0 0.00 0.00 0.00 91 1006.1
20260503022708 42 248 19.0 21.0 0.00 0.00 0.00 91 1006.0
20260503020709 42 253 19.0 21.0 0.00 0.00 0.00 90 1005.9
20260503014709 42 247 21.0 24.0 0.00 0.00 0.00 90 1005.9
20260503012709 41 237 20.0 23.0 0.00 0.00 0.00 91 1006.0
20260503010709 42 237 19.0 22.0 0.00 0.00 0.00 91 1006.1
20260503004709 42 231 20.0 22.0 0.00 0.00 0.00 90 1006.1
20260503002709 42 235 22.0 25.0 0.00 0.00 0.00 88 1006.0
20260503000709 42 242 19.0 24.0 0.00 0.00 0.00 88 1006.4
20260502234708 42 230 24.0 26.0 0.00 0.00 0.00 88 1006.3
20260502232708 43 227 25.0 28.0 0.00 0.00 0.00 88 1006.5
20260502230708 43 229 25.0 29.0 0.00 0.00 0.00 87 1006.6
20260502224709 43 230 25.0 28.0 0.00 0.00 0.00 86 1006.8
20260502222709 43 236 25.0 28.0 0.00 0.00 0.00 85 1007.1
20260502220709 43 228 27.0 30.0 0.00 0.00 0.00 85 1007.2
20260502214708 43 226 25.0 28.0 0.00 0.00 0.00 85 1007.3
20260502212708 43 225 26.0 28.0 0.00 0.00 0.00 85 1007.4
20260502210708 43 224 27.0 30.0 0.00 0.00 0.00 85 1007.6
20260502204709 44 225 26.0 29.0 0.00 0.00 0.00 83 1007.8
20260502202708 44 227 28.0 32.0 0.00 0.00 0.00 82 1008.0
20260502200708 44 222 28.0 32.0 0.00 0.00 0.00 83 1008.0
20260502194707 44 219 27.0 31.0 0.00 0.00 0.00 83 1008.3
20260502192708 44 223 28.0 30.0 0.00 0.00 0.00 83 1008.5
20260502190707 44 222 28.0 31.0 0.00 0.00 0.00 84 1008.6
20260502184707 44 222 26.0 28.0 0.00 0.00 0.00 85 1008.8
20260502182707 44 221 24.0 27.0 0.00 0.00 0.00 84 1009.0
20260502180707 44 225 26.0 29.0 0.00 0.00 0.00 83 1009.1
20260502162706 46 234 21.0 24.0 0.00 0.00 0.00 76 1010.1
20260502160707 46 236 24.0 26.0 0.00 0.00 0.00 77 1010.3
20260502150707 46 239 23.0 25.0 0.00 0.00 0.00 77 1011.1
20260502130706 49 243 29.0 32.0 0.00 0.00 0.00 70 1011.7
20260502122706 50 252 25.0 27.0 0.00 0.00 0.00 69 1012.0
20260502120706 50 251 24.0 27.0 0.00 0.00 0.00 68 1012.2
20260502114706 50 253 19.0 22.0 0.00 0.00 0.00 67 1012.3
20260502112706 48 247 15.0 17.0 0.00 0.00 0.00 75 1012.5
20260502110706 47 246 16.0 17.0 0.00 0.00 0.00 76 1012.6
20260502104705 48 249 20.0 21.0 0.00 0.00 0.00 72 1012.5
20260502102706 48 251 23.0 25.0 0.00 0.00 0.00 72 1012.5
20260502100705 49 251 21.0 24.0 0.00 0.00 0.00 72 1012.4
20260502090705 46 241 21.0 22.0 0.00 0.00 0.00 77 1012.6